Regional Weather Roundup
Issued by NWS

Home | Current Version | Previous Version | Graphics & Text | Print | Product List | Glossary On
Versions: 1 2 3 4 5 6 7 8 9 10 11 12 13 14 15 16 17 18 19 20 21 22 23 24 25 26 27 28 29 30 31 32 33 34 35 36 37 38 39 40 41 42 43 44 45 46 47 48 49 50
000
ASUS45 KTFX 221219
RWRMT
MONTANA HOURLY WEATHER ROUNDUP
NATIONAL WEATHER SERVICE GREAT FALLS MT
519 AM MST MON DEC 22 2014

NOTE: "FAIR" INDICATES FEW OR NO CLOUDS BELOW 12000 FEET WITH NO
SIGNIFICANT WEATHER AND/OR OBSTRUCTIONS TO VISIBILITY.

* THESE STATIONS ARE NOT UNDER NWS QUALITY CONTROL. THEY DO NOT
   REPORT WEATHER SUCH AS PRECIPITATION OR FOG.

MTZ001>007-043-221300-
WEST OF THE DIVIDE
CITY           SKY/WX    TMP DP  RH WIND       PRES   REMARKS
KALISPELL      CLOUDY    32  30  92 E3        29.87R
MISSOULA       CLOUDY    36  30  79 CALM      29.94R
BUTTE          LGT SNOW  28  25  89 W10G21    29.86R WCI  19
MULLAN PASS    FOG       25  25 100 VRB6      29.89R VSB 1 3/4 WCI  18
* ESSEX        N/A       32  30  92 SE2G8      N/A
* EUREKA APT   PTCLDY    37  28  70 S3        29.88R
* HAMILTON APT MOCLDY    34  30  85 SE5       29.94S WCI  29
* LIBBY APT    PTCLDY    37  25  62 N5        29.91R WCI  33
* LINCOLN      N/A       31  27  85 S5G12      N/A   WCI  26
* LOOKOUT PASS N/A       32  28  85 NE7        N/A   WCI  25
* POLSON       N/A       35  25  67 NW3        N/A
* RONAN APT    MOCLDY    39  28  65 N/A        N/A
* SEELEY LAKE  N/A       33  26  75 W3G10      N/A
* THOMP F APT  PTCLDY    26  21  81 NE3        N/A
* YAAK HILL    N/A       32  29  89 E2         N/A
$$

MTZ008-052>055-221300-
SOUTHWEST MONTANA
CITY           SKY/WX    TMP DP  RH WIND       PRES   REMARKS
BOZEMAN        CLOUDY    30  27  89 CALM      29.85R
DILLON         CLOUDY    34  23  64 W15       29.87R WCI  24
* W YELLOWSTON CLOUDY    25  22  88 SW4G12     N/A
* THREE FORKS  MOCLDY    36  36 100 SW11G16    N/A   WCI  28
* BOULDER HILL N/A       31  14  49 NW1G17     N/A
* MONIDA PASS  N/A       26  22  85 W6         N/A   WCI  19
* RAYNOLDS PAS N/A       26  16  66 SW9G14     N/A   WCI  17
* WHITEHALL    N/A       33  31  92 SW6G18     N/A   WCI  27
* WISE RIVER   N/A       30  22  72 NW12G23    N/A   WCI  20
$$

MTZ009>010-012-014-046-048-049-054-221300-
EAST SLOPES AND CENTRAL MONTANA
CITY           SKY/WX    TMP DP  RH WIND       PRES   REMARKS
CUT BANK       PTCLDY    28  19  69 W14       29.73R WCI  17
GREAT FALLS    CLOUDY    34  28  79 W9        29.75S WCI  27
HELENA         PTCLDY    37  23  57 W15G30    29.81R WCI  28
MALMSTROM AFB  CLOUDY    36  28  73 W10       29.77S WCI  29
* CONRAD       MOCLDY    36  21  54 W15G22     N/A   WCI  27
* DEARBORN     N/A       31  25  78 N/A        N/A
* EAST GLACIER N/A       32  17  54 NW10G19    N/A   WCI  24
* MONARCH      N/A       31  18  59 W16G22     N/A   WCI  20
* PENDROY      N/A       32  20  61 NW12       N/A   WCI  23
* ROGERS PASS  N/A       29  23  78 N1G12      N/A
* SWEET GRASS  N/A       29  17  61 NW12       N/A   WCI  19
* WHITE SULPH  N/A       33  23  67 W14G21     N/A   WCI  23
$$

MTZ011-013-016-021-035-040-045-047-050-051-221300-
NORTH CENTRAL MONTANA
CITY           SKY/WX    TMP DP  RH WIND       PRES   REMARKS
HAVRE          PTCLDY    30  25  82 SW9       29.72R WCI  22
LEWISTOWN      MOCLDY    34  25  70 W10       29.72R WCI  26
* N BAR RANCH  CLOUDY    32  23  69 NW20      29.70R WCI  20
* CHINOOK      PTCLDY    34  27  76 W12       29.70R WCI  25
* CHESTER      N/A       28  20  72 NE3        N/A
* DENTON       N/A       35  23  62 W9G14      N/A   WCI  28
* GEYSER       N/A       32  23  69 W12        N/A   WCI  23
* JUDITH GAP   N/A       27  16  63 NW8        N/A   WCI  19
* LOMA         N/A       27  21  78 SW6        N/A   WCI  20
$$

MTZ017>020-022>027-061-062-221300-
NORTHEAST MONTANA
CITY           SKY/WX    TMP DP  RH WIND       PRES   REMARKS
GLASGOW        CLOUDY    32  27  82 NW18      29.60R WCI  21
GLENDIVE       CLOUDY    34  28  79 NW17G28   29.55R WCI  23
JORDAN         MOCLDY    34  28  79 W16       29.62R WCI  24
SIDNEY         CLOUDY    28  25  89 W15       29.55R VSB 1 1/2 WCI  16
WOLF POINT     LGT SNOW  30  25  82 NW20      29.58R WCI  17
* BEAVER HILL  N/A       32  30  92 W28G37     N/A   WCI  18
* CIRCLE       N/A       34  30  85 NW8G17     N/A   WCI  27
* LINDSAY DVD  N/A       31  28  89 W29G37     N/A   WCI  16
* PLENTYWOOD A CLOUDY    25  23  92 NW18      29.50R VSB 1 1/2 WCI  11
* POPLAR APT   CLOUDY    27  23  85 NW14G23   29.56R VSB 1 1/4 WCI  16
* SACO         N/A       32  29  89 NW6        N/A   WCI  26
$$

MTZ028>042-056>058-221300-
SOUTHCENTRAL AND SOUTHEAST MONTANA
CITY           SKY/WX    TMP DP  RH WIND       PRES   REMARKS
BAKER          CLOUDY    34 N/A N/A NW22G38   29.53R WCI  22
BILLINGS       PTCLDY    36  21  54 W16       29.73R WCI  26
LIVINGSTON     CLOUDY    36  28  73 W21       29.78R WCI  25
MILES CITY     PTCLDY    36  27  70 NW21      29.60R WCI  25
* FORSYTH APT  PTCLDY    36  27  70 W10       29.65R WCI  29
* LAUREL APT   PTCLDY    37  19  48 W11G21     N/A   WCI  29
* ROUNDUP APT  PTCLDY    36  19  50 W10        N/A   WCI  29
* ALZADA       N/A       35  28  76 W14        N/A   WCI  26
* HYSHAM       N/A       32  20  61 W7         N/A   WCI  25
* LAME DEER    N/A       33  22  64 NW11G19    N/A   WCI  24
* REED POINT   N/A       38  26  62 NW10       N/A   WCI  31
* ROSCOE HILL  N/A       32  16  52 W4G12      N/A
$$

REGIONAL REPORTS...DAKOTAS
CITY           SKY/WX    TMP DP  RH WIND       PRES   REMARKS
WILLISTON      CLOUDY    28  25  89 NW17      29.48R WCI  16
DICKINSON      LGT SNOW  32  28  85 NW28G36   29.43R VSB 1 1/2 WCI  18
BEACH          CLOUDY    32  32 100 NW28G35   29.49S WCI  18
CROSBY         FOG       28  28 100 N6        29.49R VSB M1/4 WCI  21
TIOGA          CLOUDY    28  28 100 NW7       29.47R WCI  21
WATFORD CITY   CLOUDY    28  28 100 NW15G22   29.46R WCI  16
BISMARCK       FOG       28  28 100 CALM      29.45S VSB M1/4
GRAND FORKS    FOG       34  34 100 E6        29.52S VSB 3    WCI  29
FARGO          FOG       37  36  96 SE10      29.49S WCI  30
BUFFALO SD     CLOUDY    36  28  73 NW29G38   29.44R WCI  23
RAPID CITY     CLOUDY    43  23  45 NW26G43   29.52S
$$

REGIONAL REPORTS...WYOMING/IDAHO/WASHINGTON
CITY           SKY/WX    TMP DP  RH WIND       PRES   REMARKS
GILLETTE       CLOUDY    32  23  69 NW15      29.66S WCI  22
SHERIDAN       CLOUDY    37  21  52 NW15      29.69R WCI  28
CODY           CLOUDY    32  23  69 W6        29.74R WCI  26
YELLOWSTONE LA MOCLDY    21  18  88 W10G17    29.79F WCI  10
SALMON         CLOUDY    32  30  92 CALM      29.96S
MULLAN PASS    FOG       25  25 100 VRB6      29.89S VSB 1 3/4 WCI  18
SAND POINT     CLEAR     34  34 100 S7        29.97R WCI  28
SPOKANE        CLEAR     34  28  79 SW9       30.00R WCI  27
$$

REGIONAL REPORTS...ALBERTA
CITY           SKY/WX    TMP DP  RH WIND       PRES   REMARKS
CALGARY        PTCLDY    21  16  81 N3        29.71R
LETHBRIDGE     CLOUDY    34  25  70 W15       29.73R WCI  24
MEDICINE HAT   CLOUDY    32  30  92 W8        29.72R WCI  25
EDMONTON       PTCLDY    25  21  85 W7        29.69R WCI  17
WATERTON GATE  N/A       36  18  48 SW12G20    N/A   WCI  28
CARDSTON       N/A       36  21  54 W15G23     N/A   WCI  27
MILK RIVER     N/A       28  19  69 W15        N/A   WCI  16
$$

REGIONAL REPORTS...SASKATCHEWAN
CITY           SKY/WX    TMP DP  RH WIND       PRES   REMARKS
SWIFT CURRENT  FOG       21  19  92 NW16      29.60R WCI   7
REGINA         LGT SNOW  23  23 100 NW12      29.55R VSB 3/4  WCI  11
VAL MARIE      N/A       30  28  92 NW16G22    N/A   WCI  19
ASSINIBOIA     N/A       23  19  85 NW20       N/A   WCI   8
CORONACH       N/A       23  21  92 NW18       N/A   WCI   9

$$




USA.gov is the U.S. government's official web portal to all federal, state and local government web resources and services.